TIANMU-1 19

Last updated on Thu Jul 03 2025 00:02:22 GMT+0000 (Coordinated Universal Time)

1 58660U 23208A 25183.58464105 .00005765 00000+0 23801-3 0 9991 2 58660 97.4293 295.5584 0007297 110.3114 249.8909 15.24395934 83945
UTC large
Height (km)
Speed (km/s)
/
Latitude / Longitude
Inclination (degrees)
Orbital Period (minutes)
Azimuth
Elevation
Range (km)
Doppler Factor

Next 0 passes for location: London (51.5072 / 0.1276)

Sorry there are no passes over London.